Weather History for St. Louis, MO

Change the Weather History Date:

Thursday, January 24, 2013

  Actual Average Record
Temperature  
Mean Temperature 22 °F 32 °F  
Max Temperature 28 °F 40 °F 77 °F (1950)
Min Temperature 16 °F 24 °F -11 °F (1894)
Degree Days  
Heating Degree Days 43 33  
Month to date heating degree days 743 800  
Since 1 July heating degree days 2342 2565  
Cooling Degree Days 0 0  
Month to date cooling degree days 0 0  
Year to date cooling degree days 0 0  
Moisture  
Dew Point 6 °F    
Average Humidity 52    
Maximum Humidity 61    
Minimum Humidity 42    
Precipitation  
Precipitation 0.00 in 0.07 in 1.25 in (1928)
Month to date precipitation 1.29 1.88  
Year to date precipitation 1.29 1.88  
Snow  
Snow 0.00 in 0.10 in 4.60 in (1936)
Month to date snowfall 0.8 4.3  
Since 1 July snowfall 2.9 9.4  
Snow Depth 0.00 in    
Sea Level Pressure  
Sea Level Pressure 30.49 in    
Wind  
Wind Speed 13 mph (ENE)    
Max Wind Speed 20 mph    
Max Gust Speed 26 mph    
Visibility 10 miles    
Events      
T = Trace of Precipitation, MM = Missing Value Source: NWS Daily Summary

Daily Weather History Graph

Daily Weather History Graph

Search for Another Location

Airport:

Trip Planner

Search our weather history database for the weather conditions in past years. The results will help you decide how hot, cold, wet, or windy it might be!

Date:

Astronomy

Jan. 24, 2013 Rise Set
Actual Time 7:13 AM CST 5:14 PM CST
Civil Twilight 6:44 AM CST 5:42 PM CST
Nautical Twilight 6:12 AM CST 6:15 PM CST
Astronomical Twilight 5:41 AM CST 6:46 PM CST
Moon 3:16 PM CST (1/24) 5:10 AM CST (1/24)
Length of Visible Light 10h 58m
Length of Day
10h 00m
Waxing Gibbous, 94% of the Moon is Illuminated
Jan 24
Waxing Gibbous
Jan 26
Full
Feb 3
Last Quarter
Feb 10
New
Feb 17
First Quarter

Hourly Weather History & Observations

Time (CST) Temp. Windchill Dew Point Humidity Pressure Visibility Wind Dir Wind Speed Gust Speed Precip Events Conditions
12:51 AM 26.1 °F 15.0 °F 12.9 °F 58% 30.41 in 10.0 mi North 12.7 mph 24.2 mph N/A   Scattered Clouds
1:51 AM 24.1 °F 12.0 °F 7.0 °F 48% 30.45 in 10.0 mi North 13.8 mph 24.2 mph N/A   Partly Cloudy
2:51 AM 19.9 °F 5.2 °F 5.0 °F 52% 30.48 in 10.0 mi North 17.3 mph 24.2 mph N/A   Partly Cloudy
3:51 AM 19.0 °F 7.5 °F 3.9 °F 52% 30.52 in 10.0 mi North 10.4 mph - N/A   Scattered Clouds
4:51 AM 17.1 °F 5.0 °F 5.0 °F 59% 30.54 in 10.0 mi North 10.4 mph - N/A   Scattered Clouds
5:51 AM 17.1 °F 5.8 °F 5.0 °F 59% 30.57 in 10.0 mi NNE 9.2 mph - N/A   Mostly Cloudy
6:51 AM 16.0 °F 5.3 °F 5.0 °F 62% 30.59 in 10.0 mi NNE 8.1 mph - N/A   Mostly Cloudy
7:51 AM 17.1 °F 6.6 °F 6.1 °F 62% 30.60 in 10.0 mi NE 8.1 mph - N/A   Overcast
8:51 AM 17.6 °F 5.0 °F -0.4 °F 45% 30.58 in 10.0 mi East 11.5 mph - N/A   Overcast
9:51 AM 18.0 °F 4.2 °F -0.0 °F 45% 30.64 in 10.0 mi ENE 13.8 mph - N/A   Overcast
10:51 AM 19.9 °F 7.3 °F 1.0 °F 44% 30.64 in 10.0 mi ENE 12.7 mph - N/A   Overcast
11:51 AM 21.9 °F 11.0 °F 3.0 °F 44% 30.61 in 10.0 mi East 10.4 mph - N/A   Mostly Cloudy
12:51 PM 23.0 °F 10.1 °F 3.9 °F 44% 30.56 in 10.0 mi East 15.0 mph - N/A   Mostly Cloudy
1:51 PM 25.0 °F 12.6 °F 5.0 °F 43% 30.52 in 10.0 mi ESE 15.0 mph - N/A   Overcast
2:51 PM 25.0 °F 12.6 °F 6.1 °F 45% 30.51 in 10.0 mi East 15.0 mph - N/A   Overcast
3:51 PM 25.0 °F 12.6 °F 6.1 °F 45% 30.48 in 10.0 mi East 15.0 mph - N/A   Overcast
4:51 PM 25.0 °F 12.6 °F 5.0 °F 43% 30.46 in 10.0 mi ESE 15.0 mph - N/A   Mostly Cloudy
5:51 PM 26.1 °F 15.0 °F 6.1 °F 43% 30.45 in 10.0 mi ESE 12.7 mph - N/A   Mostly Cloudy
6:51 PM 24.8 °F 11.9 °F 6.8 °F 46% 30.38 in 10.0 mi ESE 16.1 mph 21.9 mph N/A   Overcast
7:51 PM 26.1 °F 12.7 °F 7.0 °F 44% 30.41 in 10.0 mi ESE 18.4 mph - N/A   Overcast
8:51 PM 26.1 °F 14.0 °F 8.1 °F 47% 30.38 in 10.0 mi ESE 15.0 mph - N/A   Overcast
9:51 PM 27.0 °F 16.1 °F 8.1 °F 45% 30.38 in 10.0 mi SE 12.7 mph - N/A   Overcast
10:51 PM 27.0 °F 16.1 °F 8.1 °F 45% 30.32 in 10.0 mi SE 12.7 mph - N/A   Overcast
11:51 PM 28.0 °F 18.1 °F 9.0 °F 45% 30.30 in 10.0 mi ESE 11.5 mph - N/A   Overcast